Location: Spondin
(51.8528°N, 111.6118°W)
Time: 17:06:35
(UTC+00:00)

Vanguard 2 Rocket - Pass Details

Date: 03 June 2022
Orbit: 553 x 3323 km, 32.9° (Epoch: 02 July)

Event Time Altitude Azimuth Distance (km) Brightness Sun altitude
Rises 00:34:43 0° 272° (W) 7,120 12.8 24.9°
Reaches altitude 10° 00:42:03 10° 257° (WSW) 5,742 12.5 23.8°
Maximum altitude 00:51:20 18° 223° (SW) 4,425 11.0 22.4°
Drops below altitude 10° 00:58:38 10° 187° (S) 4,343 10.4 21.3°
Sets 01:03:02 0° 169° (S) 4,847 10.4 20.6°
